EW9807 Weather Reports


time (UTC)temp
C
wind
direction
speed
KPH
gust
KPH
rain 1hr
cm
rain 24hr
cm
rain mn
cm
humidity
%
barometer
mb
20260901143030 27 213 0.0 0.0 0.00 0.00 0.00 78 1019.2
20260901142531 27 213 0.0 0.0 0.00 0.00 0.00 78 1019.3
20260901142028 27 213 0.0 4.8 0.00 0.00 0.00 79 1019.3
20260901141528 27 213 0.0 6.4 0.00 0.00 0.00 80 1019.3
20260901141027 27 168 3.2 6.4 0.00 0.00 0.00 80 1019.3
20260901140526 27 169 0.0 4.8 0.00 0.00 0.00 81 1019.2
20260901140031 27 169 1.6 4.8 0.00 0.00 0.00 81 1019.3
20260901135524 26 156 0.0 6.4 0.00 0.00 0.00 82 1019.3
20260901135024 26 174 0.0 3.2 0.00 0.00 0.00 83 1019.2
20260901134521 26 174 0.0 4.8 0.00 0.00 0.00 83 1019.2
20260901134024 26 174 0.0 4.8 0.00 0.00 0.00 83 1019.2
20260901133521 26 176 1.6 4.8 0.00 0.00 0.00 84 1019.2
20260901133018 25 172 1.6 4.8 0.00 0.00 0.00 85 1019.2
20260901132517 25 164 0.0 4.8 0.00 0.00 0.00 86 1019.1
20260901132019 25 164 1.6 4.8 0.00 0.00 0.00 86 1019.1
20260901131524 25 174 0.0 6.4 0.00 0.00 0.00 87 1019.1
20260901131014 24 174 1.6 4.8 0.00 0.00 0.00 88 1019.1
20260901130518 24 185 0.0 0.0 0.00 0.00 0.00 89 1019.1
20260901130013 23 185 0.0 0.0 0.00 0.00 0.00 90 1019.1
20260901125514 23 185 0.0 0.0 0.00 0.00 0.00 91 1019.1
20260901125013 23 185 0.0 0.0 0.00 0.00 0.00 92 1019.1
20260901124512 23 185 0.0 0.0 0.00 0.00 0.00 92 1019.0
20260901124012 22 185 0.0 0.0 0.00 0.00 0.00 93 1019.0
20260901123511 22 185 0.0 0.0 0.00 0.00 0.00 94 1018.9
20260901123010 22 185 0.0 0.0 0.00 0.00 0.00 94 1018.9
20260901122512 22 185 0.0 0.0 0.00 0.00 0.00 94 1019.0
20260901122009 22 185 0.0 0.0 0.00 0.00 0.00 94 1019.1
20260901121510 21 185 0.0 0.0 0.00 0.00 0.00 94 1018.9
20260901121008 21 185 0.0 0.0 0.00 0.00 0.00 95 1018.9
20260901120507 21 185 0.0 0.0 0.00 0.00 0.00 95 1018.9
20260901120015 21 185 0.0 0.0 0.00 0.00 0.00 94 1018.7
20260901115505 21 185 0.0 0.0 0.00 0.00 0.00 94 1018.7
20260901115004 21 185 0.0 0.0 0.00 0.00 0.00 94 1018.7
20260901114506 21 185 0.0 0.0 0.00 0.00 0.00 94 1018.6
20260901114003 21 185 0.0 0.0 0.00 0.00 0.00 94 1018.5
20260901113502 21 185 0.0 0.0 0.00 0.00 0.00 94 1018.4
20260901113002 21 185 0.0 0.0 0.00 0.00 0.00 94 1018.3
20260901112500 21 185 0.0 0.0 0.00 0.00 0.00 94 1018.2
20260901112001 21 185 0.0 0.0 0.00 0.00 0.00 94 1018.2
20260901111600 21 185 0.0 0.0 0.00 0.00 0.00 94 1018.1
20260901111100 21 185 0.0 0.0 0.00 0.00 0.00 94 1018.1
20260901110559 21 185 0.0 0.0 0.00 0.00 0.00 94 1018.0
20260901110059 21 185 0.0 0.0 0.00 0.00 0.00 94 1017.9
20260901105602 21 185 0.0 0.0 0.00 0.00 0.00 94 1018.0
20260901105101 21 185 0.0 0.0 0.00 0.00 0.00 94 1017.9
20260901104603 21 185 0.0 0.0 0.00 0.00 0.00 94 1017.9
20260901104057 21 185 0.0 0.0 0.00 0.00 0.00 93 1017.8
20260901103557 21 185 0.0 0.0 0.00 0.00 0.00 93 1017.8
20260901103056 21 185 0.0 0.0 0.00 0.00 0.00 93 1017.7
20260901102557 21 185 0.0 0.0 0.00 0.00 0.00 93 1017.7
20260901102056 21 185 0.0 0.0 0.00 0.00 0.00 93 1017.8
20260901101605 21 185 0.0 0.0 0.00 0.00 0.00 93 1017.8
20260901101056 21 185 0.0 0.0 0.00 0.00 0.00 93 1017.7
20260901100555 21 185 0.0 0.0 0.00 0.00 0.00 93 1017.8
20260901100058 21 185 0.0 0.0 0.00 0.00 0.00 93 1017.7
20260901095554 21 185 0.0 0.0 0.00 0.00 0.00 93 1017.6
20260901095054 21 185 0.0 0.0 0.00 0.00 0.00 93 1017.6
20260901094555 21 185 0.0 0.0 0.00 0.00 0.00 93 1017.6
20260901094058 22 185 0.0 0.0 0.00 0.00 0.00 93 1017.5
20260901093553 22 185 0.0 0.0 0.00 0.00 0.00 93 1017.6
20260901093054 22 185 0.0 0.0 0.00 0.00 0.00 92 1017.6
20260901092553 22 185 0.0 0.0 0.00 0.00 0.00 92 1017.5
20260901092052 22 185 0.0 0.0 0.00 0.00 0.00 92 1017.5
20260901091557 22 185 0.0 0.0 0.00 0.00 0.00 92 1017.5
20260901091051 22 185 0.0 1.6 0.00 0.00 0.00 91 1017.5
20260901090550 22 185 0.0 1.6 0.00 0.00 0.00 92 1017.4
20260901090049 22 185 0.0 0.0 0.00 0.00 0.00 91 1017.4
20260901085549 22 185 0.0 0.0 0.00 0.00 0.00 91 1017.4
20260901085049 22 185 0.0 0.0 0.00 0.00 0.00 91 1017.5
20260901084551 22 185 0.0 0.0 0.00 0.00 0.00 90 1017.5
20260901084048 22 185 0.0 0.0 0.00 0.00 0.00 90 1017.5
20260901083548 22 185 0.0 0.0 0.00 0.00 0.00 90 1017.5
20260901083048 22 185 0.0 0.0 0.00 0.00 0.00 90 1017.4
20260901082546 22 185 0.0 0.0 0.00 0.00 0.00 90 1017.5
20260901082050 22 185 0.0 0.0 0.00 0.00 0.00 90 1017.5
20260901081552 22 185 0.0 0.0 0.00 0.00 0.00 90 1017.4
20260901081046 22 185 0.0 0.0 0.00 0.00 0.00 90 1017.4
20260901080546 22 185 0.0 0.0 0.00 0.00 0.00 90 1017.3
20260901080138 22 185 0.0 0.0 0.00 0.00 0.00 90 1017.3
20260901075545 22 185 0.0 0.0 0.00 0.00 0.00 90 1017.3
20260901075046 22 185 0.0 0.0 0.00 0.00 0.00 90 1017.3
20260901074545 22 185 0.0 0.0 0.00 0.00 0.00 90 1017.3
20260901074044 22 185 0.0 0.0 0.00 0.00 0.00 90 1017.2
20260901073544 22 185 0.0 0.0 0.00 0.00 0.00 90 1017.1
20260901073044 23 185 0.0 0.0 0.00 0.00 0.00 90 1017.1
20260901072544 23 185 0.0 0.0 0.00 0.00 0.00 90 1017.2
20260901072048 23 185 0.0 0.0 0.00 0.00 0.00 90 1017.3
20260901071544 23 185 0.0 0.0 0.00 0.00 0.00 89 1017.2
20260901071043 23 185 0.0 0.0 0.00 0.00 0.00 89 1017.2
20260901070544 23 185 0.0 0.0 0.00 0.00 0.00 89 1017.2
20260901070042 23 185 0.0 0.0 0.00 0.00 0.00 90 1017.3
20260901065541 23 185 0.0 0.0 0.00 0.00 0.00 89 1017.4
20260901065041 22 185 0.0 0.0 0.00 0.00 0.00 90 1017.4
20260901064541 22 185 0.0 0.0 0.00 0.00 0.00 89 1017.4
20260901064041 22 185 0.0 0.0 0.00 0.00 0.00 89 1017.4
20260901063539 23 185 0.0 0.0 0.00 0.00 0.00 88 1017.4
20260901063053 23 185 0.0 0.0 0.00 0.00 0.00 88 1017.5
20260901062540 23 185 0.0 0.0 0.00 0.00 0.00 88 1017.5
20260901062039 23 185 0.0 0.0 0.00 0.00 0.00 88 1017.5
20260901061550 23 185 0.0 0.0 0.00 0.00 0.00 88 1017.5
20260901061036 23 185 0.0 0.0 0.00 0.00 0.00 88 1017.6
20260901060541 23 185 0.0 0.0 0.00 0.00 0.00 88 1017.6
20260901060038 23 185 0.0 0.0 0.00 0.00 0.00 88 1017.6
20260901055536 23 185 0.0 0.0 0.00 0.00 0.00 88 1017.7
20260901055037 23 185 0.0 0.0 0.00 0.00 0.00 87 1017.7
20260901054541 23 185 0.0 0.0 0.00 0.00 0.00 88 1017.6
20260901054035 23 185 0.0 0.0 0.00 0.00 0.00 88 1017.6
20260901053535 23 185 0.0 0.0 0.00 0.00 0.00 87 1017.7
20260901053038 23 185 0.0 0.0 0.00 0.00 0.00 88 1017.7
20260901052533 23 185 0.0 0.0 0.00 0.00 0.00 88 1017.7
20260901052033 23 185 0.0 0.0 0.00 0.00 0.00 88 1017.8
20260901051532 23 185 0.0 0.0 0.00 0.00 0.00 87 1017.9
20260901051033 23 185 0.0 0.0 0.00 0.00 0.00 87 1017.9
20260901050532 23 185 0.0 0.0 0.00 0.00 0.00 87 1017.8
20260901050031 23 185 0.0 0.0 0.00 0.00 0.00 87 1017.8
20260901045534 23 185 0.0 0.0 0.00 0.00 0.00 87 1017.9
20260901045030 23 185 0.0 0.0 0.00 0.00 0.00 87 1017.8
20260901044530 23 185 0.0 0.0 0.00 0.00 0.00 87 1017.8
20260901044029 23 185 0.0 0.0 0.00 0.00 0.00 86 1017.8
20260901043529 23 185 0.0 0.0 0.00 0.00 0.00 86 1017.7
20260901043033 23 185 0.0 0.0 0.00 0.00 0.00 86 1017.7
20260901042528 24 185 0.0 0.0 0.00 0.00 0.00 86 1017.7
20260901042027 24 185 0.0 0.0 0.00 0.00 0.00 86 1017.7
20260901041533 24 185 0.0 0.0 0.00 0.00 0.00 85 1017.7
20260901041028 24 185 0.0 0.0 0.00 0.00 0.00 85 1017.7
20260901040525 24 185 0.0 0.0 0.00 0.00 0.00 85 1017.8
20260901040024 24 185 0.0 0.0 0.00 0.00 0.00 85 1017.8
20260901035524 24 185 0.0 0.0 0.00 0.00 0.00 85 1017.8
20260901035024 24 185 0.0 0.0 0.00 0.00 0.00 85 1017.9
20260901034525 24 185 0.0 0.0 0.00 0.00 0.00 85 1017.9
20260901034024 24 185 0.0 0.0 0.00 0.00 0.00 84 1017.8
20260901033523 24 185 0.0 0.0 0.00 0.00 0.00 84 1017.8
20260901033023 24 185 0.0 0.0 0.00 0.00 0.00 84 1017.7
20260901032524 24 185 0.0 0.0 0.00 0.00 0.00 83 1017.7
20260901032024 25 185 0.0 0.0 0.00 0.00 0.00 83 1017.8
20260901031524 25 185 0.0 0.0 0.00 0.00 0.00 83 1017.8
20260901031023 25 185 0.0 0.0 0.00 0.00 0.00 82 1017.7
20260901030522 25 185 0.0 0.0 0.00 0.00 0.00 82 1017.8
20260901030022 25 185 0.0 0.0 0.00 0.00 0.00 83 1017.8
20260901025522 25 185 0.0 0.0 0.00 0.00 0.00 83 1017.7
20260901025022 25 185 0.0 0.0 0.00 0.00 0.00 82 1017.8
20260901024522 25 185 0.0 0.0 0.00 0.00 0.00 82 1017.7
20260901024022 25 185 0.0 0.0 0.00 0.00 0.00 82 1017.7
20260901023521 25 185 0.0 0.0 0.00 0.00 0.00 82 1017.7
20260901023021 25 185 0.0 0.0 0.00 0.00 0.00 81 1017.7
20260901022521 25 185 0.0 0.0 0.00 0.00 0.00 81 1017.7
20260901022021 25 185 0.0 0.0 0.00 0.00 0.00 81 1017.6
20260901021527 25 185 0.0 0.0 0.00 0.00 0.00 81 1017.7
20260901021022 25 185 0.0 0.0 0.00 0.00 0.00 80 1017.6
20260901020521 25 185 0.0 0.0 0.00 0.00 0.00 80 1017.6
20260901020020 25 185 0.0 0.0 0.00 0.00 0.00 80 1017.5
20260901015521 25 185 0.0 0.0 0.00 0.00 0.00 79 1017.4
20260901015021 26 185 0.0 0.0 0.00 0.00 0.00 79 1017.4
20260901014520 26 185 0.0 0.0 0.00 0.00 0.00 77 1017.4
20260901014019 26 185 0.0 0.0 0.00 0.00 0.00 78 1017.4
20260901013520 26 185 0.0 0.0 0.00 0.00 0.00 77 1017.3
20260901013020 26 185 0.0 0.0 0.00 0.00 0.00 76 1017.2
20260901012526 26 185 0.0 0.0 0.00 0.00 0.00 76 1017.2
20260901012024 26 185 0.0 0.0 0.00 0.00 0.00 75 1017.1
20260901011526 26 185 0.0 0.0 0.00 0.00 0.00 75 1017.0
20260901011022 26 185 0.0 0.0 0.00 0.00 0.00 74 1016.9
20260901010519 26 185 0.0 0.0 0.00 0.00 0.00 73 1016.9
20260901010020 26 185 0.0 0.0 0.00 0.00 0.00 73 1016.8
20260901005519 26 185 0.0 0.0 0.00 0.00 0.00 73 1016.7
20260901005023 27 185 0.0 0.0 0.00 0.00 0.00 73 1016.7
20260901004518 27 185 0.0 0.0 0.00 0.00 0.00 73 1016.6
20260901004018 27 185 0.0 0.0 0.00 0.00 0.00 72 1016.6
20260901003518 27 185 0.0 0.0 0.00 0.00 0.00 72 1016.6
20260901003018 27 185 0.0 0.0 0.00 0.00 0.00 71 1016.5
20260901002520 27 185 0.0 0.0 0.00 0.00 0.00 71 1016.5
20260901002022 27 185 0.0 0.0 0.00 0.00 0.00 70 1016.5
20260901001520 28 185 0.0 0.0 0.00 0.00 0.00 69 1016.5
20260901001017 28 185 0.0 0.0 0.00 0.00 0.00 68 1016.5
20260901000517 28 185 0.0 0.0 0.00 0.00 0.00 68 1016.4
20260901000020 28 185 0.0 0.0 0.00 0.00 0.00 66 1016.3
20260831235517 28 185 0.0 0.0 0.00 0.00 0.00 66 1016.4
20260831235020 28 185 0.0 0.0 0.00 0.00 0.00 65 1016.3
20260831234516 29 185 0.0 0.0 0.00 0.00 0.00 66 1016.3
20260831234016 29 185 0.0 0.0 0.00 0.00 0.00 64 1016.4
20260831233516 30 185 0.0 0.0 0.00 0.00 0.00 62 1016.4
20260831233015 30 185 0.0 0.0 0.00 0.00 0.00 59 1016.4
20260831232515 30 185 0.0 0.0 0.00 0.00 0.00 58 1016.4
20260831232015 30 185 0.0 0.0 0.00 0.00 0.00 58 1016.4
20260831231524 30 185 0.0 0.0 0.00 0.00 0.00 56 1016.4
20260831231015 31 185 0.0 0.0 0.00 0.00 0.00 57 1016.4
20260831230517 31 185 0.0 0.0 0.00 0.00 0.00 56 1016.4
20260831230014 30 185 0.0 1.6 0.00 0.00 0.00 57 1016.5
20260831225514 31 185 0.0 1.6 0.00 0.00 0.00 57 1016.5
20260831225013 31 185 0.0 3.2 0.00 0.00 0.00 57 1016.5
20260831224540 31 168 0.0 3.2 0.00 0.00 0.00 56 1016.5
20260831224016 31 169 0.0 3.2 0.00 0.00 0.00 55 1016.5
20260831223513 31 91 0.0 0.0 0.00 0.00 0.00 56 1016.6
20260831223013 31 91 0.0 3.2 0.00 0.00 0.00 55 1016.5
20260831222512 31 91 0.0 3.2 0.00 0.00 0.00 56 1016.6
20260831222012 31 91 0.0 3.2 0.00 0.00 0.00 55 1016.6
20260831221512 31 141 0.0 4.8 0.00 0.00 0.00 56 1016.6
20260831221012 31 141 1.6 4.8 0.00 0.00 0.00 55 1016.7
20260831220512 31 70 0.0 3.2 0.00 0.00 0.00 56 1016.6
20260831220011 31 70 0.0 3.2 0.00 0.00 0.00 55 1016.7
20260831215517 31 70 0.0 4.8 0.00 0.00 0.00 55 1016.7
20260831215013 31 70 1.6 4.8 0.00 0.00 0.00 55 1016.7
20260831214511 31 101 0.0 3.2 0.00 0.00 0.00 56 1016.7
20260831214014 31 99 1.6 6.4 0.00 0.00 0.00 56 1016.8
20260831213511 31 99 1.6 6.4 0.00 0.00 0.00 56 1016.8
20260831213010 31 46 0.0 3.2 0.00 0.00 0.00 55 1016.8
20260831212509 31 6 1.6 4.8 0.00 0.00 0.00 55 1016.9
20260831212013 31 6 1.6 4.8 0.00 0.00 0.00 54 1016.9
20260831211508 32 65 1.6 4.8 0.00 0.00 0.00 53 1017.0
20260831211011 32 89 1.6 4.8 0.00 0.00 0.00 52 1017.0
20260831210507 32 134 1.6 6.4 0.00 0.00 0.00 52 1017.0
20260831210014 32 104 1.6 6.4 0.00 0.00 0.00 53 1017.0
20260831205506 31 248 0.0 4.8 0.00 0.00 0.00 53 1017.0
20260831205006 32 289 1.6 8.0 0.00 0.00 0.00 53 1017.0
20260831204506 32 153 3.2 8.0 0.00 0.00 0.00 52 1017.1
20260831204009 31 124 0.0 6.4 0.00 0.00 0.00 55 1017.0
20260831203506 32 124 1.6 6.4 0.00 0.00 0.00 54 1017.0
20260831203013 32 145 1.6 6.4 0.00 0.00 0.00 52 1017.2
20260831202505 31 262 0.0 3.2 0.00 0.00 0.00 55 1017.1
20260831202005 31 302 1.6 4.8 0.00 0.00 0.00 53 1017.2
20260831201504 31 302 1.6 4.8 0.00 0.00 0.00 55 1017.3
20260831201004 31 323 0.0 6.4 0.00 0.00 0.00 56 1017.3
20260831200503 31 323 3.2 6.4 0.00 0.00 0.00 56 1017.3
20260831200002 31 89 1.6 4.8 0.00 0.00 0.00 56 1017.4
20260831195502 31 158 0.0 4.8 0.00 0.00 0.00 58 1017.4
20260831195002 31 2 1.6 4.8 0.00 0.00 0.00 58 1017.5
20260831194503 32 2 1.6 6.4 0.00 0.00 0.00 57 1017.5
20260831194100 32 160 1.6 6.4 0.00 0.00 0.00 56 1017.6
20260831193600 31 165 1.6 6.4 0.00 0.00 0.00 58 1017.6
20260831193102 31 210 1.6 4.8 0.00 0.00 0.00 59 1017.7
20260831192559 31 359 0.0 3.2 0.00 0.00 0.00 59 1017.9
20260831192103 31 359 0.0 3.2 0.00 0.00 0.00 60 1017.9
20260831191559 31 359 1.6 4.8 0.00 0.00 0.00 60 1018.0
20260831191102 31 359 1.6 4.8 0.00 0.00 0.00 59 1018.0
20260831190601 31 359 1.6 6.4 0.00 0.00 0.00 59 1018.0
20260831190115 32 359 1.6 6.4 0.00 0.00 0.00 58 1018.1
20260831185558 32 113 0.0 4.8 0.00 0.00 0.00 58 1018.2
20260831185057 32 182 1.6 6.4 0.00 0.00 0.00 58 1018.1
20260831184559 32 150 0.0 6.4 0.00 0.00 0.00 59 1018.3
20260831184057 32 151 1.6 6.4 0.00 0.00 0.00 56 1018.3
20260831183557 32 163 1.6 6.4 0.00 0.00 0.00 59 1018.4
20260831183057 31 124 1.6 8.0 0.00 0.00 0.00 58 1018.5
20260831182557 31 131 0.0 8.0 0.00 0.00 0.00 59 1018.5
20260831182102 32 82 3.2 6.4 0.00 0.00 0.00 56 1018.5
20260831181557 32 127 3.2 8.0 0.00 0.00 0.00 57 1018.6
20260831181057 32 94 3.2 8.0 0.00 0.00 0.00 57 1018.7
20260831180555 31 90 1.6 8.0 0.00 0.00 0.00 59 1018.7
20260831180055 32 145 3.2 8.0 0.00 0.00 0.00 59 1018.8
20260831175555 31 56 1.6 8.0 0.00 0.00 0.00 60 1018.9
20260831175053 32 86 1.6 4.8 0.00 0.00 0.00 60 1018.9
20260831174553 31 89 0.0 6.4 0.00 0.00 0.00 60 1019.0
20260831174054 31 3 0.0 4.8 0.00 0.00 0.00 59 1019.0
20260831173552 31 328 3.2 6.4 0.00 0.00 0.00 61 1019.0
20260831173051 31 127 1.6 6.4 0.00 0.00 0.00 62 1019.1
20260831172550 31 151 0.0 3.2 0.00 0.00 0.00 63 1019.2
20260831172050 31 144 0.0 4.8 0.00 0.00 0.00 63 1019.3
20260831171549 31 93 0.0 4.8 0.00 0.00 0.00 64 1019.3
20260831171048 31 85 1.6 4.8 0.00 0.00 0.00 65 1019.4
20260831170548 30 307 0.0 4.8 0.00 0.00 0.00 64 1019.3
20260831170047 30 267 1.6 3.2 0.00 0.00 0.00 66 1019.3
20260831165545 30 210 1.6 3.2 0.00 0.00 0.00 68 1019.4
20260831165044 29 209 0.0 3.2 0.00 0.00 0.00 70 1019.4
20260831164544 29 32 1.6 4.8 0.00 0.00 0.00 68 1019.4
20260831164044 30 32 1.6 4.8 0.00 0.00 0.00 69 1019.5
20260831163544 29 53 1.6 3.2 0.00 0.00 0.00 70 1019.4
20260831163044 28 55 0.0 3.2 0.00 0.00 0.00 70 1019.5
20260831162548 29 56 1.6 4.8 0.00 0.00 0.00 69 1019.6
20260831162046 30 262 1.6 4.8 0.00 0.00 0.00 68 1019.6
20260831161543 29 293 3.2 4.8 0.00 0.00 0.00 69 1019.7
20260831161045 29 232 1.6 4.8 0.00 0.00 0.00 71 1019.8
20260831160545 28 242 1.6 4.8 0.00 0.00 0.00 73 1019.8
20260831160044 28 278 1.6 4.8 0.00 0.00 0.00 72 1019.9
20260831155542 28 165 0.0 4.8 0.00 0.00 0.00 70 1019.9
20260831155041 29 164 1.6 4.8 0.00 0.00 0.00 72 1019.9
20260831154606 30 164 1.6 6.4 0.00 0.00 0.00 69 1019.9
20260831154040 30 128 0.0 6.4 0.00 0.00 0.00 71 1019.9
20260831153538 29 138 3.2 6.4 0.00 0.00 0.00 71 1019.9
20260831153038 29 115 1.6 6.4 0.00 0.00 0.00 73 1020.0
20260831152538 29 77 1.6 4.8 0.00 0.00 0.00 72 1020.0
20260831152036 28 133 0.0 4.8 0.00 0.00 0.00 75 1020.0
20260831151546 28 23 0.0 3.2 0.00 0.00 0.00 76 1020.0
20260831151035 28 119 0.0 3.2 0.00 0.00 0.00 76 1020.0
20260831150533 28 129 0.0 3.2 0.00 0.00 0.00 77 1019.9
20260831150031 27 127 0.0 4.8 0.00 0.00 0.00 77 1019.8
20260831145531 27 127 1.6 4.8 0.00 0.00 0.00 80 1019.8
20260831145032 26 150 0.0 1.6 0.00 0.00 0.00 82 1019.8
20260831144530 26 150 0.0 3.2 0.00 0.00 0.00 81 1019.8
20260831144028 26 150 0.0 3.2 0.00 0.00 0.00 82 1019.7
20260831143528 26 154 0.0 4.8 0.00 0.00 0.00 81 1019.7